Regional Weather Roundup
Issued by NWS State College, PA

Home | Current Version | Previous Version | Text Only | Print | Product List | Glossary On
Versions: 1 2 3 4 5 6 7 8 9 10 11 12 13 14 15 16 17 18 19 20 21 22 23 24 25 26 27 28 29 30 31 32 33 34 35 36 37 38 39 40 41 42 43 44 45 46 47 48 49 50
000
ASUS41 KCTP 150610
RWRCTP

REGIONAL WEATHER ROUNDUP
NATIONAL WEATHER SERVICE STATE COLLEGE PA
100 AM EST FRI DEC 15 2017

Note: "fair" indicates few or no clouds below 12,000 feet with no
significant weather and/or obstructions to visibility.

* = STATION THAT DOES NOT REPORT PRECIPITATION /E.G. RAIN...SNOW...ETC/
    THUNDER OR FOG.

PAZ002>004-007>009-013>016-020>023-029>032-150700-
WESTERN PENNSYLVANIA

CITY           SKY/WX    TMP DP  RH WIND       PRES   REMARKS
ERIE           CLOUDY    21  13  71 S10       30.03F WCI  10
MEADVILLE      CLOUDY    12  10  92 SW6       30.00F WCI   3
FRANKLIN*      CLOUDY    11   8  88 S5        30.00F WCI   3
NEW CASTLE     FAIR       8   3  80 CALM      30.05F
BEAVER COUNTY  NOT AVBL
BUTLER*        CLOUDY    10   8  92 CALM      30.03F
PITTSBURGH INT CLOUDY    16  10  77 CALM      30.02F
PITTSBURGH     PTCLDY    20  10  65 CALM      30.01F
INDIANA*       CLOUDY     9   7  92 E3        30.05F
LATROBE        CLOUDY    14  10  85 CALM      30.04F
WASHINGTON CO* CLOUDY    14  11  87 CALM      30.05F
$$

PAZ004>006-010>012-017>019-024>028-033>037-041-042-045-046-049>053-150700-
CENTRAL PENNSYLVANIA

CITY           SKY/WX    TMP DP  RH WIND       PRES   REMARKS
BRADFORD         N/A     14   9  80 SW5       29.94F WCI   6
DUBOIS         CLOUDY    12   6  77 CALM      29.97F
CLEARFIELD     CLOUDY     9   6  88 CALM      30.01F
JOHNSTOWN      CLOUDY    14   8  77 SW3       29.94F
ALTOONA        CLOUDY    15   8  73 CALM      30.01F
STATE COLLEGE  CLOUDY    11   5  79 CALM      30.03F
WILLIAMSPORT   CLOUDY    14   7  73 CALM      30.09R
SELINSGROVE    CLOUDY    12   8  84 CALM      30.10S
FT INDIANTOWN  PTCLDY    17  10  75 CALM      30.09S
CAPITAL CITY   CLOUDY    21  11  65 W3        30.10F
HARRISBURG     CLOUDY    21  14  74 N3        30.09F
YORK           PTCLDY    19  15  84 CALM      30.08F
$$

PAZ038>040-043-044-047-048-054-055-060>062-067>071-150700-
EASTERN PENNSYLVANIA

CITY           SKY/WX    TMP DP  RH WIND       PRES   REMARKS
SCRANTON       CLOUDY    10   4  76 CALM      30.04S
MOUNT POCONO   CLOUDY     8   2  76 W9        29.95R WCI  -5
ALLENTOWN      PTCLDY    17   5  59 SW5       30.10R WCI  10
QUAKERTOWN*    CLOUDY    14   7  73 CALM      30.10R
READING        CLOUDY    18  10  71 CALM      30.10S
LANCASTER      CLOUDY    22   9  57 CALM      30.10F
COATESVILLE    CLOUDY    21   7  53 N6        30.09F WCI  14
POTTSTOWN      CLOUDY    17   6  62 NW3       30.12F
BLUE BELL      CLOUDY    18  10  73 CALM      30.12F
DOYLESTOWN     CLOUDY    19   6  57 CALM      30.09F
WILLOW GROVE   NOT AVBL
NORTH PHILA    CLOUDY    24   8  50 NW3       30.13F
PHILADELPHIA   CLOUDY    25   6  44 NW3       30.13S
$$




USA.gov is the U.S. government's official web portal to all federal, state and local government web resources and services.